Showing default

LEMUR 2 GREENBERG, 42837

Orbit data source: Space-Track

LEMUR 2 GREENBERG, 42837 is a payload satellite owned by Spire (US) in SSO that was launched on Fri, 14 Jul 2017 UTC via a SOYUZ-2-1A launch vehicle from the Tyuratam Missile And Space Complex (TTMTR). Payload-class satellites include a variety of spacecraft equipped with specific instruments for various scientific and technological missions. These include communications satellites like Starlink; space stations such as the ISS; scientific satellites like the Hubble; Earth observation satellites from companies like Planet Labs, Umbra, and HawkEye 360; GPS; miniature CubeSats for education and research; and military/defense satellites.

Loading next visibility...
Identifier
42837, 2017-042N
Orbit
SSO
Country
Flag of USUS
Related business
Manufacturer
Spire/Glasgow
Mission
Operational Commercial Com/MetRO
Bus & Motor
CUBESAT 3U, Unknown motor
Mass
4 kg wet, 4 kg dry
Launch date (UTC)
2017-07-14 (9 years ago)
Launch vehicle
SOYUZ-2-1A
Launch site
Tyuratam Missile And Space Complex (TTMTR)
Object type
Payload
Rocket body
Debris
Shape & HBR
Box, 0.5 m
Radar Cross Section
0.093 m², Medium (>0.1 m² and < 1m²)

Expand to show TLE details & history
Last TLE update: 10 hours ago

TLE from 10 hours ago
0 LEMUR 2 GREENBERG
1 42837U 17042N   26168.47908919  .00012423  00000-0  41240-3 0  9994
2 42837  97.3816 349.1017 0008508  13.0067 347.1392 15.31334775488438
Epoch: 2026-06-17T11:29Z
TLE epoch observation values (Epoch: 2026-06-17T11:29:53.306Z)
Latitude
-0.00007°
Longitude
-89.10658°
Altitude
469.253 km
Speed
7.635 km/s
True Right ascension
23h 16m 24s
True Declination
0° 00' 00"
Sunlit
Object was in daylight at epoch
Visualization orbit readout
Latitude
Unknown
Longitude
Unknown
Altitude
Unknown
Speed
Unknown
Apparent Right ascension
Unknown
Apparent Declination
Unknown
Sunlit
N/A
Visualization observer readout
Local Sidereal Time
08:34:23
Azimuth
Unknown
Elevation
Unknown
Doppler factor
Unknown
Orbital elements
Apogee altitude
474.604 km
Perigee altitude
462.953 km
Semi-major axis
6,846.916 km
Eccentricity
0.00085
Inclination
97.3816°
RAAN
349.1017°
Arg. of periapsis
13.0067°
True anomaly
347.11748°
Mean anomaly
347.1392°
Eccentric anomaly
347.12834°
Mean motion
3.8309 °/min
Orbital period
93.97 mins
BSTAR
0.0004124
Loading maneuver chart data...
Computing Atmospheric mass density...

Documentation

Showing up to 5 results
|